Weather Roundup
Issued by NWS Chicago, IL

Home | Current Version | Previous Version | Text Only | Print | Product List | Glossary On
Versions: 1 2 3 4 5 6 7 8 9 10 11 12 13 14 15 16 17 18 19 20 21 22 23 24 25 26 27 28 29 30 31 32 33 34 35 36 37 38 39 40 41 42 43 44 45 46 47 48 49 50
000
NZUS59 KLOT 031612
HRRLOT

CHICAGO AREA WEATHER ROUNDUP
NATIONAL WEATHER SERVICE CHICAGO/ROMEOVILLE IL
1100 AM CDT FRI JUL 03 2015

NOTE: "FAIR" INDICATES FEW OR NO CLOUDS BELOW 12,000 FEET WITH NO
SIGNIFICANT WEATHER AND/OR OBSTRUCTIONS TO VISIBILITY.

* THESE STATIONS ARE NOT UNDER NWS QUALITY CONTROL. THEY ALSO MAY NOT
  REPORT WEATHER SUCH AS PRECIPITATION OR FOG.

ILZ005-006-012>014-019>023-031700-
NORTHEAST ILLINOIS

CITY           SKY/WX    TMP DP  RH WIND       PRES   REMARKS
OHARE          CLOUDY    71  56  58 E5        29.97F
MIDWAY         PTSUNNY   75  57  53 NE6       29.97S
AURORA         PTSUNNY   71  55  56 SE3       29.98F
LANSING*       PTSUNNY   71  52  50 E5        29.97S
JOLIET*        PTSUNNY   74  58  56 E6        29.97S
WAUKEGAN       MOSUNNY   69  56  62 CALM      29.98F
DUPAGE AIRPORT PTSUNNY   71  56  58 N3        29.98S
WHEELING       MOSUNNY   73  55  53 VRB3      29.99S
KANKAKEE*      PTSUNNY   72  59  63 NE7       29.96S
MORRIS*        PTSUNNY   73  56  55 E7        29.95F
LEWIS AIRPORT* PTSUNNY   71  54  54 E6        29.98S
NORTHERLY IS     N/A     65  57  75 N6          N/A
$$

WIZ051-052-058>065-066-070>072-031700-
SOUTHEAST WISCONSIN

CITY           SKY/WX    TMP DP  RH WIND       PRES   REMARKS
MILWAUKEE      PTSUNNY   68  55  63 VRB3      30.00S
KENOSHA*       MOSUNNY   70  56  61 E3        29.99F
RACINE*        MOSUNNY   67  54  63 E5        30.01F
BURLINGTON     MOSUNNY   69  53  55 CALM      29.99S
WAUKESHA       SUNNY     70  52  52 CALM      30.00S
WEST BEND      SUNNY     70  50  49 CALM      30.00S
$$

INZ001>003-010>013-019-020-031700-
NORTHWEST INDIANA

CITY           SKY/WX    TMP DP  RH WIND       PRES   REMARKS
GARY*          PTSUNNY   70  61  73 MISG      29.98
MICHIGAN CITY* NOT AVBL
RENSSELAER*    NOT AVBL
VALPARAISO     PTSUNNY   70  54  56 NE8       29.98S
$$

LMZ740>746-031700-
SOUTHERN LAKE MICHIGAN

STATION/POSITION TIME  SKY/WX   TEMP WIND        PRES    VSBY
                                AIR  DIR/SP/G
                 (UTC)          (F)  (DEG/KT/KT) (MB)    (MI)
HARRISON CRIB    1500            61   20/  5/  6   N/A
BURNHAM HARBOR   1600            65   30/  6/  6   N/A
CALUMET HARBOR   1500            65   20/  5/  6   N/A
BURNS HARBOR     1500            66  360/  5/  7 1015.6S
MICHIGAN CITY    1500            68   50/  2/  6   N/A
$$

ABBREVIATIONS USED IN REMARKS
   TC - TEMPERATURE IN CELSIUS
  WCI - WIND CHILL INDEX
   HX - HEAT INDEX
  VSB - VISIBILITY
$$



USA.gov is the U.S. government's official web portal to all federal, state and local government web resources and services.